Regional Weather Roundup
Issued by NWS

Home | Current Version | Previous Version | Graphics & Text | Print | Product List | Glossary On
Versions: 1 2 3 4 5 6 7 8 9 10 11 12 13 14 15 16 17 18 19 20 21 22 23 24 25 26 27 28 29 30 31 32 33 34 35 36 37 38 39 40 41 42 43 44 45 46 47 48 49 50
000
ASUS43 KIND 180109
RWRIN

WEATHER ROUNDUP FOR INDIANA
NATIONAL WEATHER SERVICE INDIANAPOLIS IN
800 PM EST WED DEC 17 2014

NOTE: "FAIR" INDICATES FEW OR NO CLOUDS BELOW 12,000 FEET WITH NO
SIGNIFICANT WEATHER AND/OR OBSTRUCTIONS TO VISIBILITY.

* - STATION DOES NOT REPORT WEATHER SUCH AS PRECIPITATION OR FOG.

+ - STATION NOT QUALITY CONTROLLED BY THE NATIONAL WEATHER SERVICE.
    USE DATA WITH CAUTION...ESPECIALLY DEWPOINT AND RELATIVE
    HUMIDITY OBSERVATIONS.

INZ001>003-010>013-019-020-180200-
NORTHWEST INDIANA

CITY           SKY/WX    TMP DP  RH WIND       PRES   REMARKS
GARY /AIRPORT/ CLOUDY    28  18  64 W9        30.27S WCI  20
KNOX *+        CLOUDY    26  20  78 W7        30.24S WCI  19
LA PORTE +     CLOUDY    28  22  76 W7        30.24S WCI  21
MICHIGAN CITY+ CLOUDY    28  18  64 NW5       30.25R WCI  23
MONTICELLO +   CLOUDY    26  19  75 NW7       30.27R WCI  19
RENSSELAER +   CLOUDY    28  25  86 W7        30.28R WCI  21
VALPARAISO     CLOUDY    25  17  72 W9        30.25S WCI  15

$$

LMZ046-743>745-180200-
SOUTHERN LAKE MICHIGAN

STATION/POSITION TIME  TEMP WIND        PRES
                       AIR  DIR/SP/G
                 (UTC) (F)  (DEG/KT/KT) (MB)

$$

INZ004-005-014>016-021>024-180200-
NORTH CENTRAL INDIANA

CITY           SKY/WX    TMP DP  RH WIND       PRES   REMARKS
GOSHEN         CLOUDY    27  22  81 W9        30.21S WCI  18
LOGANSPORT +   CLOUDY    27  19  74 W6        30.27S WCI  20
PERU/GRISSOM   CLOUDY    26  23  89 NW8       30.25S WCI  17
ROCHESTER +    CLOUDY    30  23  74 W7        30.25S WCI  23
SOUTH BEND     CLOUDY    28  21  75 NW8       30.22F WCI  20
WARSAW +       CLOUDY    27  21  80 W8        30.22F WCI  18

$$

INZ006>009-017-018-025>027-180200-
NORTHEAST INDIANA

CITY           SKY/WX    TMP DP  RH WIND       PRES   REMARKS
ANGOLA *+      CLOUDY    27  21  80 W8        30.18S WCI  18
AUBURN +       CLOUDY    28  23  80 W7        30.22R WCI  21
FORT WAYNE     CLOUDY    26  21  81 W14       30.23S WCI  14
HUNTINGTON +   CLOUDY    26  20  80 W7        30.23S WCI  18

$$

INZ028-029-035-036-043>045-051>053-180200-
WEST CENTRAL INDIANA

CITY           SKY/WX    TMP DP  RH WIND       PRES   REMARKS
GREENCASTLE +  CLOUDY    25  18  74 NW3       30.29S
LAFAYETTE      CLOUDY    25  20  81 W7        30.29R WCI  17
TERRE HAUTE    CLOUDY    24  19  81 N5        30.31S WCI  18

$$

INZ030>032-037>040-046>048-054>057-064-065-180200-
CENTRAL INDIANA

CITY           SKY/WX    TMP DP  RH WIND       PRES   REMARKS
CP ATTERBURY + CLOUDY    27  21  80 MISG      30.30R
FRANKFORT +    CLOUDY    25  22  85 SW8       30.29R WCI  17
INDIANAPOLIS   CLOUDY    24  19  81 NW7       30.27R WCI  16
-EAGLE CREEK   CLOUDY    24  20  84 NW8       30.27S WCI  15
KOKOMO *+      CLOUDY    27  19  74 NW10      30.26S WCI  17
MARION +       CLOUDY    25  22  88 NW9       30.26S WCI  16
MT COMFORT *+  CLOUDY    25  19  80 W12       30.28S WCI  14
SHELBYVILLE    CLOUDY    27  21  78 NW8       30.27R WCI  19
ZIONSVILLE +   CLOUDY    25  19  80 W8        30.28R WCI  16

$$

INZ033-034-041-042-049-050-058-059-180200-
EAST CENTRAL INDIANA

CITY           SKY/WX    TMP DP  RH WIND       PRES   REMARKS
MUNCIE         CLOUDY    25  20  81 W10       30.25S WCI  15

$$

INZ060-061-067>069-081>083-085>088-180200-
SOUTHWEST INDIANA

CITY           SKY/WX    TMP DP  RH WIND       PRES   REMARKS
EVANSVILLE     CLEAR     33  25  72 N3        30.31S
HUNTINGBURG *+ CLOUDY    30  23  74 NW7       30.31R WCI  23
WASHINGTON +   CLOUDY    30  22  71 W7        30.31R WCI  23

$$

INZ062-063-066-070>080-084-089>092-180200-
SOUTH CENTRAL AND SOUTHEAST INDIANA

CITY           SKY/WX    TMP DP  RH WIND       PRES   REMARKS
BLOOMINGTON    CLOUDY    25  20  81 W5        30.28R WCI  19
SEYMOUR +      CLOUDY    30  23  74 NW6       30.29  WCI  24

$$



USA.gov is the U.S. government's official web portal to all federal, state and local government web resources and services.